Regional Weather Roundup
Issued by NWS Little Rock, AR

Home | Current Version | Previous Version | Text Only | Print | Product List | Glossary On
Versions: 1 2 3 4 5 6 7 8 9 10 11 12 13 14 15 16 17 18 19 20 21 22 23 24 25 26 27 28
000
ASUS44 KLZK 310905
RWRLZK

WEATHER ROUNDUP FOR ARKANSAS
NATIONAL WEATHER SERVICE LITTLE ROCK AR
400 AM CDT FRI OCT 31 2014

NOTE: "FAIR" INDICATES FEW OR NO CLOUDS BELOW 12,000 FEET WITH NO
SIGNIFICANT WEATHER AND/OR OBSTRUCTIONS TO VISIBILITY.

ARZ001-003-010-029-311000-
NORTHWEST ARKANSAS

CITY           SKY/WX    TMP DP  RH WIND       PRES   REMARKS
FAYETTEVILLE   CLEAR     45  40  82 CALM      30.17R
FORT SMITH     CLEAR     52  41  66 W8        30.15R
HARRISON       CLEAR     49  41  74 NW8       30.13R
BENTONVILLE    CLEAR     52  39  62 N13G20    30.18R
ROGERS         CLEAR     50  40  68 N12G18    30.18R
SILOAM SPGS    CLEAR     46  36  66 N10       30.20R
HIGHFILL       CLEAR     50  42  74 N14       30.17R
$$

ARZ004-005-016-311000-
NORTH CENTRAL ARKANSAS

CITY           SKY/WX    TMP DP  RH WIND       PRES   REMARKS
BATESVILLE     CLEAR     54  43  66 NW6       30.04S
FLIPPIN        CLEAR     52  37  58 NW6       30.10S
MTN HOME       CLEAR     50  41  71 VRB5      30.09R
$$

ARZ040-041-311000-
WEST CENTRAL ARKANSAS

CITY           SKY/WX    TMP DP  RH WIND       PRES   REMARKS
MENA           CLEAR     57  41  54 CALM      30.13S
MOUNT IDA      CLEAR     47  44  90 CALM      30.08S
$$

ARZ009-017-025-026-028-311000-
NORTHEAST ARKANSAS

CITY           SKY/WX    TMP DP  RH WIND       PRES   REMARKS
CORNING        FAIR      46  45  93 NW7       30.03S
JONESBORO      CLEAR     48  47  96 NW6       30.01R
NEWPORT        CLEAR     50  45  83 NW10      30.04R
WALNUT RIDGE   CLEAR     46  41  81 NW9       30.03S
BLYTHEVILLE    CLEAR     48  46  93 CALM      29.99F
$$

ARZ022-023-033-042-044-311000-
CENTRAL ARKANSAS

CITY           SKY/WX    TMP DP  RH WIND       PRES   REMARKS
LITTLE ROCK    CLEAR     57  44  62 NW12      30.06S
N LITTLE ROCK    N/A     53  47  77 NW7       30.06S
JACKSONVILLE   CLEAR     51  44  77 W5        30.06R
SEARCY         CLEAR     55  44  66 NW6       30.05S
HOT SPRINGS    CLEAR     51  45  79 NW6       30.09R
RUSSELLVILLE   CLEAR     46  43  89 CALM      30.09S
$$

ARZ036-311000-
EAST ARKANSAS

CITY           SKY/WX    TMP DP  RH WIND       PRES   REMARKS
WEST MEMPHIS   CLEAR     50  48  93 N3        29.97F
$$

ARZ050-053-066-070-073-311000-
SOUTHWEST ARKANSAS

CITY           SKY/WX    TMP DP  RH WIND       PRES   REMARKS
ARKADELPHIA    FAIR      48  48 100 CALM      30.09R
CAMDEN         CLEAR     45  43  93 CALM      30.07S FOG
TEXARKANA      CLEAR     54  44  69 NW7       30.10S
DE QUEEN       FOG       42  42 100 CALM      30.11R VSB 3/4
$$

ARZ056-057-069-311000-
SOUTHEAST ARKANSAS

CITY           SKY/WX    TMP DP  RH WIND       PRES   REMARKS
PINE BLUFF     CLEAR     55  45  68 NW9       30.05S
STUTTGART      CLEAR     54  45  71 NW12      30.03F
MONTICELLO     CLEAR     55  47  74 NW6       30.03S

$$





USA.gov is the U.S. government's official web portal to all federal, state and local government web resources and services.